Lid_Strength_Index
1 3 3 5 8 9 9 8 6 6 6 6 7 5 5 6 7 8 1 0 0 -0 -1 -1 -1 -1 -1 -1 -1 -1 -1 -1 -1 -1 -1 -1 -1 -1 -1 -1 -1 -1 -1 -1 -1 -1 -1 -1 -1
3 3 5 6 11 11 10 7 8 6 6 6 7 7 7 7 3 3 2 0 -0 -0 -1 -1 -1 -1 -1 -1 -1 -1 -1 -1 -1 -1 -1 -1 -1 -1 -1 -1 -1 -1 -1 -1 -1 -1 -1 -1 -1
1 2 6 8 10 11 10 9 8 7 6 6 7 7 7 5 3 2 0 -0 -0 -0 -1 -1 -1 -1 -1 -1 -1 -1 -1 -1 -1 -1 -1 -1 -1 -1 -1 -1 -1 -1 -1 -1 -1 -1 -1 -1 -1
2 4 5 8 9 7 8 8 8 8 7 6 6 7 4 2 2 1 -0 -0 0 -0 -1 -1 -1 -1 -1 -1 -1 -1 -1 -1 -1 -1 -1 -1 -1 -1 -1 -1 -1 -1 -1 -1 -1 -1 -1 -1 -1
2 4 8 9 8 7 7 7 6 7 7 7 7 7 6 3 0 0 0 0 0 -0 -1 -1 -1 -1 -1 -1 -1 -1 -1 -1 -1 -1 -1 -1 -1 -1 -1 -1 -1 -1 -1 -1 -1 -1 -1 -1 -1
6 5 9 10 9 7 7 6 6 6 6 6 7 7 6 4 1 0 0 0 -0 -0 -0 -1 -1 -1 -1 -1 -1 -1 -1 -1 -1 -1 -1 -1 -1 -1 -1 -1 -1 -1 -1 -1 -1 -1 -1 -1 -1
7 8 9 9 9 8 7 6 6 6 6 6 5 8 6 5 1 0 0 0 0 -0 -0 -0 -1 -1 -1 -1 -1 -1 -1 -1 -1 -1 -1 -1 -1 -1 -1 -1 -1 -1 -1 -1 -1 -1 -1 -1 -1
6 7 10 9 9 9 6 7 7 6 6 5 4 6 6 5 2 0 0 0 0 0 0 -0 -1 -1 -1 -1 -1 -1 -1 -1 -1 -1 -1 -1 -1 -1 -1 -1 -1 -1 -1 -1 -1 -1 -1 -1 -1
6 9 10 9 9 8 7 8 6 6 7 6 5 5 4 3 3 2 1 1 1 1 1 0 -0 -1 -1 -1 -1 -1 -1 -1 -1 -1 -1 -1 -2 -2 -2 -2 -1 -1 -1 -1 -1 -1 -1 -1 -1
8 10 10 9 8 8 8 8 7 8 8 7 6 5 4 4 3 3 3 2 2 2 1 0 -0 -0 -1 -1 -1 -1 -1 -1 -2 -2 -2 -2 -2 -2 -2 -1 -1 -1 -1 -1 -1 -1 -1 -1 -2
8 10 9 9 8 8 8 8 7 8 8 7 7 6 5 4 4 3 4 2 1 1 1 1 0 -0 -1 -1 -1 -1 -1 -1 -1 -2 -2 -2 -1 -1 -1 -1 -1 -2 -1 -1 -1 -1 -1 -1 -1
9 8 8 8 7 7 8 7 8 7 7 6 6 5 5 5 4 4 3 4 2 1 1 1 0 -0 -1 -1 -0 -1 -1 -1 -1 -1 -2 -1 -1 -1 -1 -1 -1 -1 -1 -2 -1 -1 -2 -1 -1
8 8 7 7 7 7 7 8 8 8 6 5 5 5 5 4 4 4 3 1 2 1 1 1 0 0 -0 -1 -0 -1 -1 -1 -1 -1 -1 -1 -1 -1 -1 -1 -1 -1 -2 -1 -1 -1 -1 -1 -1
7 7 7 6 7 6 7 7 7 7 6 6 6 5 5 4 4 4 3 2 1 1 0 0 0 -0 -0 -0 -1 -0 -1 -1 -1 -1 -1 -1 -1 -1 -1 -1 -1 -1 -1 -1 -1 -1 -1 -1 -1
6 7 6 6 6 6 6 8 7 5 5 6 5 5 5 4 3 3 3 3 1 1 0 0 1 -0 -0 -0 -0 -0 -1 -1 -0 -1 -2 -1 -2 -1 -1 -1 -1 -1 -1 -1 -1 -1 -1 -1 -1
7 7 9 6 6 6 6 9 6 5 5 5 5 5 5 4 4 3 3 2 1 -0 0 -0 0 0 0 -0 -0 -0 -1 -1 -1 -1 -1 -1 -1 -2 -1 -1 -1 -1 -1 -1 -1 -1 -1 -1 -0
7 10 9 8 5 5 6 8 5 4 4 4 4 4 4 4 4 3 2 2 1 0 -0 0 0 1 0 -0 -0 -0 -1 -0 -1 -1 -1 -1 -1 -1 -1 -1 -1 -1 -1 -1 -1 -1 -0 -0 0
10 9 9 9 6 6 7 7 5 4 4 4 4 4 3 4 3 3 3 1 1 -0 -1 -0 0 0 0 0 0 0 0 -0 -0 -0 -1 -1 -1 -1 -1 -1 -1 -1 -0 -0 -0 -0 -1 -0 0
8 8 9 7 6 7 7 7 6 5 5 5 4 4 4 3 2 2 2 2 1 -0 -0 -0 0 0 1 1 2 1 1 1 0 -0 -1 -1 -1 -1 -1 -1 -1 -1 -0 -0 -0 0 1 0 -1
8 9 9 7 6 7 8 8 6 5 5 4 4 4 4 3 2 2 2 2 1 0 -0 0 0 0 1 1 1 1 1 0 0 -0 -0 -1 -1 -1 -1 -1 -0 -1 -0 -0 -0 0 1 -0 -0
8 9 9 9 7 7 8 9 7 6 5 4 4 3 3 3 3 2 2 1 1 0 0 0 0 1 1 0 1 1 0 0 1 0 0 -0 -1 -1 -1 -1 -1 -1 -0 0 -0 0 0 2 1
10 7 8 9 10 12 8 13 8 7 6 5 5 4 4 3 3 2 2 1 1 1 -0 -0 -0 1 1 0 1 1 2 2 1 1 0 0 -1 -1 -1 -1 -1 -1 -1 -0 -1 -1 -0 0 2
9 7 8 9 10 10 10 12 9 7 8 7 5 4 4 3 3 3 2 1 1 0 0 -0 -0 0 1 1 1 1 1 1 1 1 1 0 -0 -1 -1 -1 -1 -0 -0 -0 1 1 1 2 3
7 8 8 8 9 14 11 11 10 8 8 6 5 4 4 3 3 2 2 1 1 0 0 -0 0 1 1 1 1 1 1 1 1 1 2 1 1 0 -0 -0 0 0 1 2 2 2 2 3 3
7 9 16 16 16 16 10 12 10 7 6 6 6 5 4 3 3 2 2 2 1 1 1 0 0 1 1 1 1 1 1 1 1 2 2 2 2 1 2 1 3 3 3 2 2 3 3 4 5
9 10 16 20 16 14 10 14 9 6 5 5 4 4 4 4 3 3 2 2 1 1 1 1 1 1 1 1 1 1 0 1 1 1 1 2 1 1 2 4 2 2 3 3 4 5 6 6 6
11 13 9 16 13 17 12 10 7 6 6 6 5 5 4 4 3 3 3 2 2 1 1 1 1 1 1 1 1 1 1 1 1 1 1 1 0 1 1 2 2 2 3 4 6 7 7 6 6
8 7 14 14 20 19 13 12 11 8 7 6 6 5 4 4 3 3 2 2 1 1 1 1 0 1 1 1 1 1 1 1 1 1 1 2 1 1 3 3 3 3 3 5 6 6 5 5 6
11 11 11 12 14 18 17 12 7 8 6 7 6 5 5 4 3 3 2 2 1 1 1 1 1 1 1 1 1 2 2 1 1 1 1 2 2 2 3 3 4 4 5 5 5 5 4 4 4
8 10 11 17 16 14 15 15 6 6 6 5 5 5 4 4 3 3 2 2 2 1 1 1 1 1 1 1 1 1 2 1 1 1 1 3 2 2 3 4 4 4 5 5 5 5 4 4 4